Wind_Speed
52 52 52 47 51 48 46 45 47 46 41 36 35 34 29 28 28 26 24 18 21 13 11 15 19 18 21 22 24 22 22 18
57 58 58 56 54 60 38 44 53 45 43 41 41 36 33 30 31 30 26 20 25 19 22 16 25 19 22 25 25 23 22 22
56 61 63 64 63 66 56 52 46 49 45 41 45 37 33 35 35 33 24 24 29 26 16 18 22 21 22 28 26 24 24 21
41 46 54 67 71 70 66 62 54 50 46 45 46 44 37 34 39 36 31 23 29 28 21 20 18 17 21 26 27 23 24 24
43 47 44 49 67 75 74 72 63 59 57 53 49 46 40 36 41 42 38 27 29 28 26 23 21 20 22 24 26 24 27 26
48 49 52 52 53 70 79 79 76 67 61 62 66 47 45 42 40 42 43 35 30 31 27 25 24 23 22 18 21 27 29 27
50 53 58 61 59 59 75 83 81 77 67 64 63 58 53 51 48 47 44 43 33 34 30 26 28 24 25 21 26 28 30 30
57 61 69 69 67 63 67 84 86 82 78 70 67 59 55 51 47 47 48 47 43 34 33 28 27 27 25 21 29 25 26 32
64 72 78 72 62 65 66 78 89 86 81 76 72 66 58 53 51 47 42 46 49 34 37 31 31 28 26 29 28 27 24 32
71 73 59 52 47 56 64 75 86 91 86 79 76 70 66 60 58 50 42 46 45 40 35 37 31 33 28 28 32 33 27 31
66 56 46 38 38 43 59 69 82 91 90 85 78 77 69 63 58 51 43 52 46 47 36 40 34 34 34 33 35 35 31 33
62 54 54 44 29 32 48 64 74 87 93 89 82 79 75 68 61 57 49 52 45 47 42 41 39 36 37 36 34 31 32 35
57 57 57 49 43 24 37 57 66 77 91 92 86 81 76 72 66 62 59 51 51 51 55 36 45 42 46 41 37 33 29 41
57 58 56 42 40 32 29 45 61 68 86 92 90 84 79 72 69 65 59 46 64 56 50 54 44 39 42 41 39 34 28 41
58 56 48 33 48 38 25 35 54 64 79 91 91 88 82 74 72 67 62 57 67 51 45 45 50 46 42 41 37 30 30 39
60 61 49 30 37 17 15 27 44 59 69 87 93 91 85 77 73 70 60 58 55 55 47 45 43 44 43 44 43 35 34 28
63 61 53 26 12 7 7 16 34 54 64 79 91 91 85 79 75 71 66 60 55 61 48 35 37 46 36 45 41 42 37 29
60 59 60 36 16 9 8 11 23 44 59 70 88 91 87 85 78 73 67 60 56 56 55 45 35 38 48 39 33 35 34 37
59 59 55 51 29 14 12 10 16 33 55 65 82 90 90 87 83 75 67 61 58 55 53 43 48 29 35 44 40 30 28 34
60 56 56 52 47 32 17 9 8 20 45 61 74 87 88 87 82 77 69 62 59 56 58 50 42 41 35 38 45 35 35 30
Wind_Direction
258 255 255 247 248 247 244 243 247 248 250 253 254 249 245 241 234 232 230 241 224 221 205 175 191 202 208 198 198 195 187 189
263 259 256 253 250 239 231 250 240 237 241 244 254 245 240 235 232 235 235 234 228 210 207 203 192 203 208 202 199 199 193 191
271 261 258 256 250 248 249 248 238 234 234 243 246 236 230 229 230 223 231 233 225 208 212 214 197 213 214 203 201 200 191 196
287 279 266 255 252 249 246 240 234 231 231 237 240 234 226 229 224 216 221 224 229 225 216 210 198 205 203 204 207 198 194 202
286 286 287 271 253 248 247 243 235 227 235 230 235 225 224 227 221 218 217 217 227 224 221 210 206 205 205 213 213 203 198 206
289 287 285 283 270 248 242 243 240 237 223 218 225 227 223 222 220 224 224 222 221 217 219 215 211 209 201 219 214 209 205 207
296 294 288 284 277 259 241 236 239 238 226 218 222 223 222 227 227 220 223 223 217 214 213 214 213 213 206 211 211 211 207 209
304 298 291 285 280 266 244 232 231 235 232 225 219 219 218 220 220 220 222 225 218 217 209 209 210 212 204 204 202 202 205 211
310 305 298 287 274 260 245 230 225 227 229 225 220 219 212 211 217 219 222 224 220 212 214 210 210 216 207 209 211 213 206 210
315 311 300 286 268 248 239 229 221 220 223 223 221 221 214 214 215 218 218 224 219 212 215 210 207 222 206 209 217 224 225 216
326 320 314 305 280 251 235 227 220 216 217 220 218 221 219 219 218 217 220 228 220 212 212 207 204 221 214 209 220 219 228 223
332 333 326 323 302 259 237 228 221 213 213 215 216 218 218 218 218 218 214 227 227 215 207 208 203 212 219 213 214 226 227 219
333 332 325 322 310 281 241 228 220 215 210 211 211 215 217 215 216 217 217 224 225 207 204 215 211 216 210 210 212 215 224 211
338 333 329 310 306 294 242 230 220 216 211 208 208 210 214 214 213 216 218 213 227 205 205 207 213 215 209 211 215 219 224 221
349 340 334 308 295 298 250 228 219 217 211 207 206 207 211 212 212 214 217 222 234 213 197 209 216 220 211 209 211 221 227 224
355 354 343 310 303 286 252 227 218 215 214 208 205 206 206 209 211 212 210 206 223 214 210 212 212 210 208 215 216 219 218 224
360 1 359 352 345 319 267 230 216 214 214 210 205 205 204 208 210 212 211 219 224 230 195 192 214 205 209 220 221 228 224 212
1 5 9 4 358 335 295 249 224 214 214 212 205 204 202 207 207 212 212 213 218 228 222 212 218 210 216 214 205 213 217 217
6 8 10 14 8 349 325 278 236 219 213 213 208 203 202 206 206 210 212 210 214 214 224 216 223 209 217 220 217 219 211 220
12 11 14 13 17 16 8 330 273 224 217 213 209 205 202 204 205 208 211 211 214 216 223 223 224 220 219 223 224 225 235 235
Height
5790 5791 5790 5792 5794 5796 5793 5797 5802 5806 5808 5810 5813 5817 5818 5820 5822 5823 5825 5828 5829 5829 5833 5833 5838 5840 5843 5845 5848 5851 5855 5858
5776 5778 5778 5779 5783 5782 5784 5786 5791 5795 5799 5803 5804 5808 5811 5814 5815 5819 5822 5825 5827 5828 5830 5830 5833 5836 5838 5841 5845 5849 5853 5856
5762 5763 5764 5765 5766 5769 5772 5778 5780 5783 5788 5795 5798 5800 5803 5806 5809 5812 5818 5821 5821 5823 5825 5828 5830 5833 5835 5837 5841 5846 5852 5854
5748 5745 5747 5748 5749 5756 5758 5764 5767 5773 5777 5784 5789 5791 5794 5797 5801 5806 5812 5815 5816 5818 5822 5824 5827 5830 5832 5835 5838 5845 5849 5852
5737 5730 5730 5729 5728 5735 5741 5746 5754 5757 5765 5773 5777 5782 5786 5789 5792 5798 5803 5808 5811 5815 5817 5821 5824 5828 5830 5833 5836 5842 5846 5849
5721 5717 5713 5711 5709 5711 5719 5725 5735 5742 5752 5759 5765 5770 5777 5781 5785 5790 5796 5801 5805 5810 5814 5817 5821 5825 5827 5830 5833 5838 5843 5847
5706 5699 5692 5691 5689 5689 5692 5703 5713 5723 5735 5743 5750 5757 5765 5772 5777 5782 5787 5793 5798 5804 5808 5812 5817 5820 5823 5826 5830 5834 5839 5844
5687 5678 5668 5665 5663 5663 5666 5674 5690 5701 5715 5728 5736 5744 5753 5761 5767 5773 5779 5785 5791 5796 5802 5808 5813 5815 5819 5823 5827 5831 5835 5840
5666 5653 5636 5630 5634 5631 5636 5646 5663 5677 5692 5710 5720 5730 5741 5748 5757 5764 5770 5776 5782 5790 5796 5802 5807 5811 5814 5819 5822 5828 5832 5836
5647 5627 5612 5600 5598 5599 5606 5618 5633 5651 5669 5687 5704 5716 5727 5735 5745 5754 5760 5766 5774 5782 5788 5796 5802 5808 5810 5815 5819 5823 5829 5831
5628 5604 5590 5582 5575 5576 5581 5592 5607 5625 5647 5666 5686 5699 5713 5723 5733 5743 5751 5758 5764 5774 5779 5788 5795 5801 5805 5809 5814 5818 5823 5826
5606 5590 5574 5565 5560 5559 5562 5570 5585 5603 5623 5645 5667 5681 5697 5711 5721 5732 5742 5747 5757 5765 5773 5780 5787 5792 5798 5803 5808 5813 5817 5820
5594 5579 5565 5555 5547 5545 5547 5553 5568 5584 5603 5624 5647 5665 5680 5696 5709 5720 5730 5739 5748 5756 5765 5773 5780 5785 5787 5796 5802 5807 5811 5815
5587 5568 5557 5547 5537 5533 5535 5541 5553 5569 5579 5605 5627 5649 5665 5682 5696 5709 5719 5730 5736 5748 5756 5764 5771 5777 5783 5789 5796 5802 5807 5810
5584 5565 5546 5538 5531 5525 5525 5530 5542 5553 5572 5587 5611 5632 5650 5667 5683 5698 5710 5721 5726 5737 5746 5755 5765 5770 5777 5783 5790 5797 5801 5803
5582 5559 5539 5530 5522 5518 5519 5523 5533 5547 5556 5572 5593 5615 5637 5656 5672 5687 5700 5709 5716 5726 5739 5748 5756 5763 5770 5776 5784 5790 5794 5798
5576 5560 5539 5525 5519 5518 5518 5520 5525 5535 5547 5564 5580 5604 5629 5649 5664 5677 5690 5701 5710 5720 5729 5738 5747 5756 5764 5771 5777 5783 5787 5792
5582 5564 5546 5531 5524 5520 5519 5519 5522 5529 5542 5553 5571 5594 5618 5630 5650 5665 5679 5693 5704 5713 5721 5732 5741 5748 5756 5765 5770 5776 5781 5786
5584 5568 5553 5540 5529 5522 5520 5519 5521 5526 5535 5548 5564 5584 5602 5620 5639 5656 5671 5685 5697 5707 5715 5724 5732 5741 5749 5757 5764 5769 5775 5781
5590 5575 5561 5547 5536 5527 5520 5518 5520 5525 5532 5543 5558 5572 5594 5611 5631 5649 5665 5678 5690 5700 5707 5716 5726 5734 5743 5750 5756 5763 5768 5774